Showing default

METEOR M2-2, 44387

Orbit data source: Space-Track

METEOR M2-2, 44387 is a Commonwealth of Independent States-origin payload satellite in SSO that was launched on Fri, 05 Jul 2019 UTC via a SOYUZ-2-1B launch vehicle from the Vostochny Cosmodrome (VOSTO). Payloads include a variety of satellites, spacecraft, and rockets equipped with specific instruments for various scientific and technological missions. These include communications satellites like Starlink; space stations such as the ISS; scientific satellites like the Hubble; Earth observation satellites from companies like Planet Labs, Umbra, and HawkEye 360; GPS; miniature CubeSats for education and research; and military/defense satellites.

Loading next visibility...
METEOR M2-2 details
Identifier
44387, 2019-038A
Orbit
SSO
Last TLE update8 hours ago
Origin
Flag of CISRGMS/VNIIEMI (CIS)
ManufacturerVNIIEM
MissionPartially operational Civil Weather
Bus & MotorRESURS-O, Unknown motor
Mass2,879 kg wet, ~2,600 kg dry
Launch date (UTC)
2019-07-05 (5 years ago)
Launch vehicle
SOYUZ-2-1B
Launch site
Vostochny Cosmodrome (VOSTO)
Object type
Payload
Rocket body
Debris
Shape & HBRCyl + 2 Pan, 14 m
Radar Cross Section26.744 m², Large (>1 m²)

Expand to show TLE details & history

TLE from 8 hours ago
0 METEOR M2-2
1 44387U 19038A   24361.11450103  .00000367  00000-0  17906-3 0  9990
2 44387  98.8537 331.3706 0002133 109.5704 250.5705 14.24098450284708
Epoch: 2024-12-26T02:44Z
Definitive object data (Epoch: 2024-12-26T02:44:52.889Z)
Latitude0.00003°
Longitude-164.94832°
Altitude814.951 km
Speed7.445 km/s
True Right ascension22h 05m 28s
True Declination0° 00' 00"
Sunlit
Object was in daylight at TLE epoch
Visualization TLE readout
Latitude-14.91937°
Longitude-162.23151°
Altitude818.408 km
Speed7.443 km/s
Apparent Right ascension22h 21m 05s
Apparent Declination-26° 31' 05"
Sunlit
Object is in daylight
Visualization observer readout
Local Sidereal Time10:27:49
Azimuth6.477° NNE
Elevation-76.529°
Doppler factor1
Orbital elements
Apogee altitude810.218 km
Perigee altitude807.153 km
Semi-major axis7,186.822 km
Eccentricity0.0002133
Inclination98.8537°
RAAN331.3706°
Arg. of periapsis109.5704°
True anomaly250.54745°
Mean anomaly250.5705°
Eccentric anomaly250.55898°
Mean motion3.56236 °/min
BSTAR0.00017906
Orbital period101.06 mins
Loading maneuver chart data...

METEOR M2-2 Visibility forecast

Observer location: undefined°, undefined

Span
Click to sort rows by Start time (UTC) header in descending order
Start Az.
Max El. time (UTC)
Max El. Az.
Max El.
End time (UTC)
End Az.
9 mins2024-12-26 11:44:31.661Z359.966° N2024-12-26 11:49:31.661Z284.859° WNW34.819°2024-12-26 11:53:31.661Z222.852° SW
8 mins2024-12-26 21:26:31.661Z123.327° SE2024-12-26 21:29:31.661Z77.3° E29.356°2024-12-26 21:34:31.661Z4.971° NNE
7 mins2024-12-26 23:06:31.661Z214.283° SW2024-12-26 23:09:31.661Z258.69° W25.401°2024-12-26 23:13:31.661Z317.606° NNW
|